Overview Statistics Trail Chart Weather Telemetry Raw packets
 

This is the latest recevied weather packets stored in our database for station/object G4KVI. If no packets are shown the sender has not sent any weather packets the latest 10 day(s).

<< 21 22 23 24 25 26 27 >>
Time Temp. Humidity Pressure Rain* Wind** Luminosity Snow
1788447604 22.78° C 65% 1019.6 hPa 0 mm - 242 W/m² -
1788447304 23.33° C 63% 1019.9 hPa 0 mm - 157 W/m² -
1788447004 23.33° C 62% 1020 hPa 0 mm - 172 W/m² -
1788446704 23.89° C 62% 1019.6 hPa 0 mm - 155 W/m² -
1788446404 25° C 60% 1019.9 hPa 0 mm - 190 W/m² -
1788446104 24.44° C 60% 1019.7 hPa 0 mm - 563 W/m² -
1788445804 23.89° C 61% 1019.7 hPa 0 mm - 539 W/m² -
1788445504 24.44° C 60% 1019.6 hPa 0 mm - 540 W/m² -
1788445204 24.44° C 65% 1019.6 hPa 0 mm - 347 W/m² -
1788444904 24.44° C 67% 1019.6 hPa 0 mm - 465 W/m² -
1788444604 23.89° C 68% 1019.7 hPa 0 mm - 256 W/m² -
1788444304 24.44° C 68% 1019.6 hPa 0 mm - 240 W/m² -
1788444004 24.44° C 68% 1019.7 hPa 0 mm - 194 W/m² -
1788443704 24.44° C 69% 1019.6 hPa 0 mm - 171 W/m² -
1788443404 24.44° C 67% 1019.5 hPa 0 mm - 198 W/m² -
1788443104 24.44° C 67% 1019.4 hPa 0 mm - 305 W/m² -
1788442804 24.44° C 66% 1019.8 hPa 0 mm - 541 W/m² -
1788442504 23.89° C 70% 1019.5 hPa 0 mm - 660 W/m² -
1788442204 23.33° C 71% 1019.6 hPa 0 mm - 515 W/m² -
1788441904 23.89° C 69% 1019.9 hPa 0 mm - 214 W/m² -
1788441604 23.89° C 72% 1019.9 hPa 0 mm - 275 W/m² -
1788441304 23.89° C 71% 1019.9 hPa 0 mm - 625 W/m² -
1788441004 23.33° C 73% 1020 hPa 0 mm - 444 W/m² -
1788440704 23.89° C 71% 1020.1 hPa 0 mm - 402 W/m² -
1788440404 23.89° C 72% 1019.9 hPa 0 mm - 247 W/m² -

* Rain latest hour (hover to see other rain measurements)
** Current wind speed in m/s (hover to see current wind gust speed)